Location: Bois de la Silve
(44.4667°N, 6.7833°E)
Time: 10:54:47
(UTC+00:00)

USA 238 - Pass Details

Date: 14 July 2020
Orbit: 1009 x 1203 km, 63.4° (Epoch: 05 August)

Event Time Altitude Azimuth Distance (km) Brightness Sun altitude
Exits shadow 02:58:30 - 200° (SSW) 2,934 5.4 -9.7°
Reaches altitude 10° 02:58:53 10° 200° (SSW) 2,795 5.3 -9.7°
Maximum altitude 03:05:21 63° 121° (ESE) 1,156 4.0 -8.8°
Drops below altitude 10° 03:12:05 10° 42° (NE) 2,914 7.7 -7.9°
Sets 03:14:49 0° 40° (NE) 3,901 8.8 -7.6°
